QPF
0.00 0.00 0.00 0.00 0.00 0.00 0.00 0.00 0.00 0.00 0.00 0.00 0.00 0.00 0.00 0.00 0.00 0.00 0.00 0.00 0.00 0.00 0.00 0.00 0.00 0.00 0.00 0.00 0.00 0.00 0.00 0.00 0.00 0.00 0.00 0.00 0.00 0.00 0.00 0.00 0.00 0.00 0.00 0.00
0.00 0.00 0.00 0.00 0.00 0.00 0.00 0.00 0.00 0.00 0.00 0.00 0.00 0.00 0.00 0.00 0.00 0.00 0.00 0.00 0.00 0.00 0.00 0.00 0.00 0.00 0.00 0.00 0.00 0.00 0.00 0.00 0.00 0.00 0.00 0.00 0.00 0.00 0.00 0.00 0.00 0.00 0.00 0.00
0.01 0.00 0.00 0.00 0.00 0.00 0.00 0.00 0.00 0.00 0.00 0.00 0.00 0.00 0.00 0.00 0.00 0.00 0.00 0.00 0.00 0.00 0.00 0.00 0.00 0.00 0.00 0.00 0.00 0.00 0.00 0.00 0.00 0.00 0.00 0.00 0.00 0.00 0.00 0.00 0.00 0.00 0.00 0.00
0.02 0.00 0.00 0.00 0.00 0.00 0.00 0.00 0.00 0.00 0.00 0.00 0.00 0.00 0.00 0.00 0.00 0.00 0.00 0.00 0.00 0.00 0.00 0.00 0.00 0.00 0.00 0.00 0.00 0.00 0.00 0.00 0.00 0.00 0.00 0.00 0.00 0.00 0.00 0.00 0.00 0.00 0.00 0.00
0.04 0.02 0.00 0.00 0.00 0.00 0.00 0.00 0.00 0.00 0.00 0.00 0.00 0.00 0.00 0.00 0.00 0.00 0.00 0.00 0.00 0.00 0.00 0.00 0.00 0.00 0.00 0.00 0.00 0.00 0.00 0.00 0.00 0.00 0.00 0.00 0.00 0.00 0.00 0.00 0.00 0.00 0.00 0.00
0.03 0.02 0.01 0.00 0.00 0.00 0.00 0.00 0.00 0.00 0.00 0.00 0.00 0.00 0.00 0.00 0.00 0.00 0.00 0.00 0.00 0.00 0.00 0.00 0.00 0.00 0.00 0.00 0.00 0.00 0.00 0.00 0.00 0.00 0.00 0.00 0.00 0.00 0.00 0.00 0.00 0.00 0.00 0.00
0.05 0.04 0.01 0.00 0.00 0.00 0.00 0.01 0.00 0.00 0.00 0.00 0.00 0.00 0.00 0.00 0.00 0.00 0.00 0.00 0.00 0.00 0.00 0.00 0.00 0.00 0.00 0.00 0.00 0.00 0.00 0.00 0.00 0.00 0.00 0.00 0.00 0.00 0.00 0.00 0.00 0.00 0.00 0.00
0.06 0.04 0.01 0.00 0.00 0.00 0.01 0.01 0.02 0.00 0.00 0.00 0.00 0.00 0.00 0.00 0.00 0.00 0.00 0.00 0.00 0.00 0.00 0.00 0.00 0.00 0.00 0.00 0.00 0.00 0.00 0.00 0.00 0.00 0.00 0.00 0.00 0.00 0.00 0.00 0.00 0.00 0.00 0.00
0.01 0.01 0.01 0.00 0.00 0.01 0.01 0.03 0.04 0.01 0.00 0.00 0.00 0.00 0.00 0.00 0.00 0.00 0.00 0.00 0.00 0.00 0.00 0.00 0.00 0.00 0.00 0.00 0.00 0.00 0.00 0.00 0.00 0.00 0.00 0.00 0.00 0.00 0.00 0.00 0.00 0.00 0.00 0.00
0.00 0.00 0.00 0.00 0.01 0.01 0.03 0.05 0.04 0.01 0.00 0.00 0.00 0.00 0.00 0.00 0.00 0.00 0.00 0.00 0.00 0.00 0.00 0.00 0.00 0.00 0.00 0.00 0.00 0.00 0.00 0.00 0.00 0.00 0.00 0.00 0.00 0.00 0.00 0.00 0.00 0.00 0.00 0.00
0.00 0.00 0.00 0.00 0.01 0.02 0.03 0.05 0.05 0.02 0.02 0.01 0.00 0.00 0.01 0.01 0.00 0.01 0.00 0.00 0.00 0.00 0.00 0.00 0.00 0.00 0.00 0.00 0.00 0.00 0.00 0.00 0.00 0.00 0.00 0.00 0.00 0.00 0.00 0.00 0.00 0.00 0.00 0.00
0.00 0.00 0.01 0.01 0.02 0.02 0.02 0.03 0.05 0.04 0.04 0.01 0.02 0.02 0.02 0.03 0.04 0.03 0.01 0.00 0.01 0.00 0.00 0.00 0.00 0.00 0.00 0.00 0.01 0.00 0.00 0.00 0.00 0.00 0.00 0.00 0.00 0.00 0.08 0.08 0.05 0.01 0.04 0.02
0.01 0.01 0.02 0.02 0.01 0.01 0.02 0.02 0.03 0.04 0.01 0.02 0.03 0.03 0.03 0.05 0.06 0.05 0.03 0.02 0.01 0.01 0.01 0.00 0.00 0.00 0.00 0.00 0.01 0.01 0.00 0.00 0.00 0.00 0.00 0.00 0.01 0.01 0.00 0.00 0.08 0.08 0.19 0.19
0.01 0.01 0.01 0.01 0.01 0.00 0.00 0.01 0.01 0.02 0.01 0.04 0.05 0.05 0.03 0.05 0.06 0.04 0.04 0.05 0.04 0.05 0.06 0.05 0.04 0.03 0.03 0.01 0.00 0.01 0.02 0.00 0.00 0.00 0.00 0.00 0.04 0.10 0.07 0.05 0.09 0.05 0.09 0.08
0.00 0.01 0.01 0.01 0.01 0.00 0.00 0.00 0.01 0.01 0.01 0.01 0.04 0.06 0.05 0.04 0.03 0.03 0.03 0.03 0.04 0.05 0.06 0.07 0.08 0.08 0.08 0.09 0.11 0.04 0.03 0.02 0.00 0.02 0.02 0.06 0.07 0.08 0.09 0.08 0.08 0.07 0.14 0.12
0.00 0.00 0.00 0.00 0.00 0.00 0.00 0.00 0.00 0.00 0.00 0.00 0.01 0.01 0.04 0.05 0.04 0.02 0.01 0.01 0.02 0.03 0.03 0.03 0.04 0.06 0.09 0.09 0.12 0.13 0.07 0.02 0.00 0.00 0.01 0.01 0.03 0.03 0.03 0.01 0.00 0.00 0.01 0.01
0.00 0.00 0.00 0.00 0.00 0.00 0.00 0.01 0.01 0.01 0.01 0.00 0.00 0.00 0.00 0.01 0.02 0.02 0.01 0.00 0.00 0.01 0.01 0.01 0.01 0.02 0.04 0.03 0.03 0.05 0.06 0.01 0.00 0.00 0.01 0.01 0.00 0.00 0.00 0.00 0.00 0.00 0.00 0.00
0.00 0.00 0.00 0.00 0.00 0.00 0.00 0.00 0.00 0.00 0.01 0.01 0.00 0.00 0.00 0.00 0.00 0.01 0.00 0.00 0.00 0.00 0.00 0.00 0.00 0.02 0.01 0.00 0.00 0.00 0.01 0.01 0.01 0.00 0.01 0.02 0.01 0.02 0.00 0.00 0.00 0.01 0.01 0.01
0.00 0.00 0.00 0.00 0.00 0.00 0.00 0.00 0.00 0.00 0.00 0.00 0.00 0.00 0.00 0.00 0.00 0.00 0.00 0.00 0.00 0.00 0.00 0.00 0.00 0.00 0.00 0.00 0.00 0.00 0.01 0.02 0.01 0.01 0.02 0.05 0.04 0.05 0.06 0.03 0.02 0.03 0.03 0.03
0.00 0.00 0.00 0.00 0.00 0.00 0.00 0.00 0.00 0.00 0.00 0.00 0.00 0.00 0.00 0.00 0.00 0.00 0.00 0.00 0.01 0.00 0.00 0.00 0.00 0.00 0.00 0.00 0.00 0.00 0.00 0.00 0.01 0.01 0.01 0.02 0.03 0.03 0.06 0.06 0.06 0.03 0.02 0.03
0.01 0.00 0.00 0.00 0.00 0.00 0.00 0.00 0.00 0.00 0.00 0.00 0.00 0.00 0.00 0.00 0.00 0.00 0.00 0.00 0.00 0.00 0.00 0.00 0.00 0.00 0.00 0.00 0.00 0.00 0.00 0.00 0.00 0.00 0.00 0.00 0.00 0.01 0.02 0.03 0.05 0.03 0.02 0.01
0.00 0.00 0.00 0.00 0.00 0.00 0.00 0.00 0.00 0.00 0.00 0.00 0.00 0.00 0.00 0.00 0.00 0.00 0.00 0.00 0.00 0.00 0.00 0.00 0.00 0.00 0.00 0.00 0.00 0.00 0.00 0.00 0.00 0.00 0.00 0.00 0.00 0.00 0.00 0.00 0.00 0.00 0.00 0.00
0.00 0.00 0.00 0.00 0.00 0.00 0.00 0.00 0.00 0.00 0.00 0.00 0.00 0.00 0.00 0.01 0.01 0.00 0.00 0.00 0.00 0.00 0.00 0.00 0.00 0.00 0.00 0.00 0.00 0.00 0.00 0.00 0.00 0.00 0.00 0.00 0.00 0.00 0.00 0.00 0.00 0.00 0.00 0.00
0.00 0.00 0.00 0.00 0.00 0.00 0.00 0.00 0.00 0.00 0.00 0.00 0.00 0.00 0.00 0.00 0.01 0.00 0.00 0.00 0.00 0.00 0.01 0.01 0.00 0.00 0.00 0.00 0.00 0.00 0.00 0.00 0.00 0.00 0.00 0.00 0.00 0.00 0.00 0.00 0.00 0.00 0.00 0.00
0.00 0.00 0.00 0.00 0.00 0.00 0.00 0.00 0.00 0.00 0.00 0.00 0.00 0.00 0.00 0.00 0.01 0.01 0.00 0.00 0.00 0.00 0.01 0.01 0.00 0.00 0.00 0.00 0.00 0.00 0.00 0.00 0.00 0.00 0.00 0.00 0.00 0.00 0.00 0.00 0.00 0.00 0.00 0.00
0.00 0.00 0.00 0.00 0.00 0.00 0.00 0.00 0.00 0.00 0.00 0.00 0.00 0.00 0.00 0.00 0.00 0.00 0.00 0.00 0.00 0.00 0.00 0.00 0.00 0.00 0.00 0.00 0.00 0.00 0.00 0.00 0.00 0.00 0.00 0.00 0.00 0.00 0.00 0.00 0.00 0.00 0.00 0.00
0.00 0.00 0.00 0.00 0.00 0.00 0.00 0.00 0.00 0.00 0.00 0.00 0.00 0.00 0.00 0.00 0.00 0.00 0.00 0.00 0.00 0.00 0.00 0.01 0.00 0.00 0.00 0.00 0.00 0.00 0.00 0.00 0.00 0.00 0.00 0.00 0.00 0.00 0.00 0.00 0.00 0.00 0.00 0.00
MSLP
1008.79 1007.87 1007.36 1006.20 1004.94 1004.13 1003.58 1002.82 1001.09 999.37 998.34 996.85 996.35 996.62 996.13 995.56 995.45 995.22 994.98 995.05 995.16 995.86 996.84 998.08 999.24 1000.19 1001.44 1002.70 1003.62 1004.36 1005.32 1006.29 1007.10 1008.05 1008.97 1009.76 1010.63 1011.35 1012.16 1012.72 1013.23 1013.74 1014.19 1014.51
1009.92 1008.70 1008.08 1006.93 1006.38 1005.92 1005.29 1004.46 1003.44 1002.01 1000.25 999.32 999.03 999.10 997.91 996.84 995.93 995.97 995.80 995.75 995.47 995.95 996.44 997.15 998.23 999.36 1000.44 1001.62 1002.45 1003.42 1004.10 1004.95 1005.91 1007.15 1008.12 1008.79 1009.58 1010.40 1011.28 1011.90 1012.40 1012.87 1013.24 1013.64
1010.90 1009.62 1008.48 1007.28 1006.64 1006.27 1005.79 1005.30 1004.79 1003.44 1002.44 1002.01 1001.10 1000.38 999.23 997.62 996.63 996.51 996.25 996.66 996.68 996.79 996.72 996.94 997.52 998.52 999.43 1000.45 1001.58 1002.49 1003.21 1004.35 1005.24 1006.25 1007.23 1007.94 1008.67 1009.46 1010.12 1010.87 1011.53 1011.97 1012.37 1012.73
1012.31 1010.63 1008.32 1007.06 1006.75 1006.12 1005.64 1005.23 1004.94 1004.40 1003.80 1002.71 1001.54 1000.58 999.74 998.40 997.30 997.64 997.33 997.24 997.91 997.98 997.51 997.27 997.10 997.50 998.82 999.74 1001.05 1001.67 1002.58 1003.39 1004.55 1005.39 1006.34 1007.16 1007.94 1008.47 1009.13 1009.82 1010.42 1011.00 1011.45 1011.84
1013.03 1011.34 1009.58 1007.97 1007.34 1007.32 1007.84 1006.77 1006.76 1005.93 1004.43 1003.02 1001.97 1001.12 1000.03 998.86 998.76 999.28 999.37 999.39 999.49 999.22 998.59 997.90 997.40 997.07 997.82 999.02 1000.03 1001.16 1001.61 1002.45 1003.32 1004.35 1005.36 1006.30 1006.97 1007.62 1008.22 1008.89 1009.43 1009.93 1010.47 1010.96
1013.11 1011.92 1010.02 1008.60 1008.29 1009.92 1010.31 1007.52 1007.38 1006.40 1004.90 1002.96 1001.77 1000.74 999.70 999.80 999.58 1000.13 1000.30 1000.30 1000.00 999.54 998.94 998.40 998.14 997.38 997.12 998.11 999.02 999.96 1000.46 1001.16 1002.41 1003.61 1004.47 1005.18 1005.84 1006.66 1007.36 1007.97 1008.35 1008.82 1009.31 1009.89
1013.24 1012.57 1011.24 1010.28 1010.40 1011.19 1010.82 1008.44 1007.78 1006.48 1003.16 1001.75 1001.07 1000.43 1000.42 1001.67 1001.66 1001.67 1001.26 1000.83 1000.32 999.43 998.52 997.95 997.58 997.46 997.02 997.07 997.90 998.34 999.90 1001.09 1002.10 1003.00 1003.60 1004.33 1005.21 1005.92 1006.55 1007.08 1007.53 1008.13 1008.42 1008.94
1014.07 1013.07 1012.14 1012.43 1012.36 1012.83 1011.43 1010.84 1009.83 1006.74 1001.04 1001.38 1001.02 1001.60 1002.70 1003.14 1002.90 1002.45 1002.04 1001.13 1000.10 998.66 997.02 996.50 996.66 996.65 996.64 996.58 996.68 998.40 999.55 1000.53 1001.50 1002.48 1003.28 1004.03 1004.72 1005.32 1006.03 1006.71 1007.22 1007.44 1007.96 1008.10
1014.86 1013.34 1013.16 1013.57 1014.17 1013.78 1013.72 1012.65 1011.05 1008.62 1004.10 1002.76 1002.91 1003.30 1003.86 1003.52 1003.83 1003.66 1003.17 1002.04 1000.76 999.27 996.52 995.54 995.35 995.87 996.00 996.36 996.79 997.80 998.94 999.90 1000.85 1001.88 1002.73 1003.28 1004.25 1004.98 1005.54 1006.24 1006.51 1007.00 1007.26 1007.53
1016.39 1014.81 1014.70 1014.11 1014.32 1014.00 1013.34 1012.25 1010.63 1008.84 1005.91 1004.69 1004.43 1004.45 1004.51 1004.58 1004.81 1004.53 1004.06 1003.06 1001.93 1000.50 998.40 997.49 995.92 995.53 996.01 996.07 996.78 997.66 998.64 999.62 1000.25 1001.16 1001.97 1002.90 1003.80 1004.71 1005.11 1005.33 1006.04 1006.09 1006.45 1006.51
1016.33 1015.82 1015.26 1014.06 1013.86 1013.48 1012.60 1011.25 1009.78 1008.79 1007.88 1006.76 1005.78 1005.01 1005.41 1005.62 1005.43 1005.36 1004.76 1003.70 1003.18 1002.03 1000.84 999.77 998.74 997.76 996.59 996.74 997.25 997.80 998.61 999.14 999.69 1000.53 1001.56 1002.54 1003.16 1004.08 1004.22 1005.54 1005.52 1005.66 1005.64 1005.81
1016.77 1016.50 1015.51 1014.63 1014.02 1012.96 1011.48 1010.69 1010.14 1008.98 1008.37 1007.66 1006.70 1006.48 1006.32 1006.58 1006.06 1006.08 1005.07 1004.59 1003.90 1002.75 1001.94 1001.44 1000.81 1000.22 999.44 998.70 997.64 997.81 998.32 998.66 999.00 999.37 1000.68 1001.72 1003.26 1004.42 1004.99 1005.31 1005.90 1006.50 1006.87 1006.86
1016.81 1016.31 1015.88 1014.86 1014.24 1012.61 1011.56 1011.25 1010.51 1009.73 1009.05 1007.95 1007.82 1006.82 1007.02 1006.28 1006.90 1006.31 1005.72 1005.38 1004.56 1003.95 1003.48 1002.86 1002.21 1001.55 1000.91 1000.08 998.84 998.10 998.16 997.80 998.00 998.42 999.64 1000.66 1001.84 1003.16 1004.50 1006.22 1006.38 1006.19 1006.31 1006.70
1015.97 1015.56 1015.53 1015.00 1014.40 1013.23 1012.28 1011.88 1010.87 1010.16 1009.45 1008.80 1008.40 1008.56 1007.16 1007.63 1007.26 1006.48 1006.15 1006.01 1005.50 1005.05 1004.41 1003.61 1002.89 1002.18 1001.36 1000.82 1000.01 998.46 998.05 997.80 997.52 998.34 998.98 1000.50 1001.54 1002.19 1003.00 1004.44 1005.65 1006.15 1006.80 1006.96
1015.07 1015.26 1015.44 1015.24 1014.66 1013.81 1013.45 1012.57 1012.04 1011.48 1010.61 1010.32 1009.57 1009.42 1008.85 1008.26 1007.54 1007.14 1006.88 1006.55 1006.13 1005.69 1005.22 1004.70 1003.83 1003.27 1002.60 1001.80 1000.85 999.62 998.98 998.44 998.05 998.49 999.32 1000.20 1001.62 1002.79 1003.66 1004.37 1004.76 1005.67 1006.80 1007.20
1014.02 1014.28 1014.22 1014.10 1014.18 1013.98 1014.02 1013.10 1012.29 1012.06 1011.94 1011.18 1010.46 1010.18 1009.96 1009.19 1008.80 1008.16 1007.78 1007.17 1006.43 1006.36 1006.12 1005.43 1005.28 1004.50 1003.43 1002.53 1002.00 1001.20 1000.60 1000.45 1000.13 1000.15 1000.23 1001.38 1002.46 1001.72 1003.72 1004.30 1004.47 1005.05 1005.62 1006.48
1013.52 1013.26 1013.52 1013.64 1013.49 1013.66 1013.98 1013.69 1013.04 1013.46 1012.76 1011.96 1011.78 1011.70 1011.26 1010.53 1009.83 1009.45 1008.63 1007.87 1007.60 1007.23 1007.19 1006.81 1006.39 1005.64 1004.59 1003.68 1003.00 1001.98 1001.49 1001.48 1001.77 1001.77 1001.67 1001.89 1001.76 1001.56 1003.34 1003.15 1004.16 1005.85 1005.00 1005.66
1013.77 1013.71 1013.68 1013.41 1013.23 1013.18 1012.90 1013.56 1013.71 1013.13 1012.72 1013.15 1012.67 1012.68 1012.08 1011.18 1011.15 1010.70 1010.32 1009.83 1009.32 1008.37 1007.99 1007.73 1007.72 1006.90 1005.62 1004.48 1003.43 1002.53 1002.02 1001.84 1002.90 1003.35 1003.58 1003.21 1003.16 1003.47 1003.08 1005.19 1005.66 1005.72 1006.40 1006.90
1013.69 1013.71 1013.54 1013.92 1013.66 1013.36 1013.16 1013.24 1013.70 1013.88 1013.49 1013.32 1013.10 1012.69 1012.70 1012.13 1011.62 1011.89 1011.69 1011.30 1010.51 1009.68 1009.23 1008.52 1008.12 1006.73 1005.67 1004.52 1003.99 1003.07 1002.86 1003.22 1003.13 1003.69 1004.38 1004.65 1004.84 1005.36 1005.48 1006.51 1007.72 1006.62 1007.17 1008.96
1013.55 1013.48 1013.58 1013.48 1013.56 1013.38 1013.31 1013.28 1013.54 1013.74 1014.39 1014.33 1014.16 1013.22 1013.07 1012.84 1012.36 1013.06 1013.08 1011.55 1011.28 1010.55 1009.54 1008.61 1007.52 1006.62 1005.86 1005.10 1004.70 1005.19 1004.17 1003.75 1003.85 1004.21 1004.62 1005.81 1007.03 1007.49 1008.19 1008.66 1008.49 1008.44 1009.50 1009.40
1013.25 1013.38 1013.42 1013.41 1013.24 1013.08 1012.89 1013.19 1013.34 1013.35 1013.13 1013.47 1013.61 1013.80 1014.50 1014.36 1014.22 1014.08 1012.71 1011.75 1011.68 1010.95 1009.80 1008.86 1008.24 1007.51 1007.33 1006.74 1006.19 1004.65 1004.69 1005.65 1006.01 1005.46 1005.87 1006.23 1006.94 1008.14 1009.14 1009.83 1010.82 1010.67 1010.49 1010.58
1013.24 1013.24 1013.21 1012.94 1012.87 1012.58 1012.36 1012.57 1013.23 1013.38 1013.59 1013.84 1013.95 1014.34 1014.70 1014.86 1014.63 1013.72 1013.46 1013.13 1012.87 1011.62 1010.22 1009.72 1009.16 1008.54 1008.09 1007.36 1006.33 1005.55 1005.69 1006.49 1006.94 1007.07 1007.46 1007.16 1008.04 1009.06 1010.29 1010.33 1011.20 1011.90 1011.79 1011.96
1012.96 1013.02 1013.15 1012.81 1012.73 1012.69 1012.66 1012.64 1013.04 1013.44 1013.72 1013.76 1013.85 1013.90 1013.82 1014.40 1014.61 1014.68 1014.32 1014.06 1013.49 1012.69 1011.42 1010.80 1010.42 1009.54 1009.15 1008.76 1008.56 1008.08 1008.02 1008.35 1008.70 1008.78 1009.63 1010.25 1009.58 1010.12 1011.76 1011.65 1011.67 1012.38 1013.82 1013.46
1013.07 1013.15 1013.09 1012.81 1012.56 1012.47 1012.53 1012.52 1012.38 1012.64 1013.26 1013.56 1013.65 1013.86 1013.91 1014.48 1014.61 1015.25 1015.24 1014.48 1013.81 1013.13 1012.72 1012.52 1012.09 1011.34 1010.90 1010.97 1010.82 1010.55 1010.80 1010.80 1011.18 1011.52 1012.10 1011.93 1012.10 1012.98 1013.51 1013.56 1014.15 1014.30 1013.98 1014.70
1013.14 1013.06 1012.93 1012.86 1012.48 1012.19 1012.29 1012.40 1011.93 1012.08 1012.20 1012.91 1013.58 1013.80 1013.20 1014.18 1014.84 1015.83 1015.92 1015.62 1015.24 1014.76 1014.54 1014.30 1013.92 1013.30 1013.02 1012.97 1012.74 1012.82 1013.16 1013.06 1013.03 1013.25 1013.69 1013.60 1014.08 1014.71 1015.10 1015.17 1015.24 1015.30 1015.49 1015.76
1013.11 1012.89 1012.96 1013.45 1013.17 1012.81 1012.59 1012.58 1012.35 1012.49 1012.31 1012.56 1012.86 1013.46 1013.41 1013.98 1015.20 1015.53 1016.52 1016.46 1016.09 1015.86 1015.51 1015.46 1015.38 1014.94 1014.76 1014.73 1014.76 1014.76 1014.68 1014.77 1014.72 1015.15 1015.40 1015.61 1015.84 1016.22 1016.25 1016.40 1016.81 1016.78 1016.26 1016.62
1013.18 1014.08 1013.46 1013.44 1012.82 1013.07 1013.63 1013.51 1012.94 1012.86 1013.16 1013.51 1013.33 1014.05 1014.31 1014.31 1015.18 1015.27 1015.45 1015.75 1015.87 1016.01 1016.04 1016.10 1016.04 1016.09 1016.12 1016.22 1016.23 1016.10 1016.10 1016.20 1016.35 1016.40 1016.45 1016.50 1016.84 1017.15 1017.49 1017.57 1017.66 1017.52 1017.40 1017.49
Thickness
5593 5601 5602 5614 5629 5644 5647 5662 5672 5714 5724 5759 5780 5775 5794 5812 5819 5827 5835 5847 5855 5858 5856 5855 5854 5854 5848 5842 5840 5840 5836 5834 5835 5834 5832 5830 5827 5825 5824 5823 5821 5820 5818 5818
5560 5585 5593 5597 5609 5617 5627 5642 5652 5669 5685 5730 5737 5743 5761 5782 5804 5808 5817 5827 5841 5846 5853 5855 5855 5854 5851 5845 5845 5843 5840 5839 5840 5834 5831 5831 5830 5828 5825 5824 5824 5823 5822 5821
5539 5568 5577 5572 5594 5604 5619 5633 5637 5643 5677 5697 5707 5726 5741 5772 5793 5799 5809 5814 5821 5833 5845 5853 5858 5859 5854 5853 5850 5845 5844 5840 5839 5836 5832 5832 5832 5829 5828 5826 5825 5824 5824 5825
5522 5544 5537 5580 5604 5612 5614 5626 5633 5645 5655 5682 5705 5726 5737 5763 5775 5778 5790 5800 5805 5819 5833 5847 5861 5862 5858 5855 5847 5847 5843 5843 5840 5838 5834 5833 5831 5831 5830 5829 5828 5826 5826 5827
5503 5522 5545 5564 5578 5586 5561 5579 5593 5612 5640 5671 5697 5714 5722 5752 5765 5766 5777 5786 5793 5807 5821 5837 5848 5860 5859 5853 5851 5844 5846 5846 5845 5843 5837 5834 5832 5831 5832 5829 5829 5829 5829 5828
5509 5507 5516 5558 5576 5537 5537 5559 5599 5620 5637 5665 5692 5678 5715 5736 5752 5756 5765 5773 5783 5797 5812 5824 5836 5852 5857 5854 5852 5848 5853 5854 5850 5843 5838 5836 5836 5833 5831 5830 5831 5831 5830 5832
5504 5502 5517 5542 5528 5521 5511 5563 5590 5601 5644 5666 5682 5700 5719 5711 5728 5737 5751 5764 5778 5793 5806 5821 5836 5843 5848 5857 5854 5865 5858 5850 5846 5843 5841 5838 5834 5833 5832 5831 5831 5830 5831 5832
5492 5497 5497 5504 5507 5494 5525 5534 5547 5587 5660 5663 5684 5677 5679 5690 5707 5724 5736 5754 5772 5793 5815 5830 5837 5840 5845 5851 5868 5857 5853 5847 5843 5840 5837 5834 5831 5831 5830 5828 5826 5828 5827 5830
5490 5503 5498 5491 5480 5487 5487 5505 5527 5566 5628 5649 5650 5662 5672 5684 5695 5709 5723 5741 5758 5779 5812 5830 5838 5840 5843 5852 5856 5854 5850 5845 5842 5839 5835 5835 5828 5825 5824 5824 5824 5824 5825 5825
5459 5482 5480 5484 5475 5481 5493 5511 5535 5557 5598 5619 5628 5648 5657 5670 5682 5693 5706 5723 5738 5757 5784 5798 5824 5836 5842 5847 5850 5848 5843 5839 5840 5836 5833 5832 5828 5823 5821 5823 5820 5825 5825 5826
5465 5467 5468 5484 5488 5489 5503 5522 5534 5555 5569 5593 5620 5638 5648 5658 5671 5679 5692 5711 5722 5737 5754 5771 5789 5806 5826 5835 5839 5838 5835 5836 5836 5832 5829 5825 5825 5825 5826 5815 5823 5827 5832 5832
5469 5460 5473 5482 5488 5500 5519 5530 5543 5558 5569 5581 5605 5621 5635 5643 5660 5667 5684 5698 5710 5727 5739 5749 5762 5776 5793 5809 5828 5830 5828 5830 5832 5834 5828 5824 5817 5812 5806 5812 5808 5807 5808 5816
5457 5463 5468 5482 5484 5504 5520 5529 5539 5555 5564 5583 5593 5614 5624 5643 5648 5660 5674 5683 5698 5709 5719 5731 5742 5756 5773 5788 5807 5819 5823 5830 5835 5834 5828 5824 5822 5816 5810 5802 5800 5804 5809 5809
5471 5472 5471 5480 5486 5499 5510 5521 5534 5549 5560 5574 5587 5597 5620 5627 5639 5653 5662 5671 5683 5694 5705 5718 5730 5742 5758 5771 5786 5810 5818 5822 5833 5824 5829 5820 5818 5816 5817 5811 5806 5809 5801 5803
5483 5476 5470 5475 5485 5493 5501 5510 5524 5534 5546 5557 5578 5587 5602 5616 5630 5640 5649 5659 5670 5681 5690 5702 5715 5726 5740 5755 5767 5787 5799 5811 5821 5817 5821 5817 5809 5803 5800 5799 5800 5799 5792 5790
5495 5489 5488 5490 5488 5491 5493 5504 5516 5528 5535 5551 5569 5577 5587 5603 5614 5627 5635 5647 5659 5665 5675 5688 5695 5707 5722 5737 5748 5761 5775 5781 5790 5794 5799 5790 5786 5798 5785 5788 5792 5793 5790 5786
5496 5496 5495 5491 5496 5494 5488 5495 5507 5511 5522 5541 5552 5562 5573 5584 5595 5605 5620 5635 5644 5653 5659 5668 5677 5690 5704 5717 5729 5746 5753 5756 5762 5771 5777 5776 5780 5790 5783 5789 5775 5767 5782 5779
5497 5495 5494 5496 5497 5497 5503 5496 5498 5511 5520 5524 5538 5546 5557 5570 5576 5587 5597 5609 5620 5636 5645 5651 5655 5667 5683 5699 5714 5728 5738 5743 5738 5745 5751 5758 5764 5767 5772 5764 5758 5765 5762 5760
5496 5494 5495 5489 5492 5495 5498 5499 5497 5499 5507 5511 5519 5532 5541 5551 5564 5568 5576 5585 5599 5612 5622 5634 5643 5659 5673 5690 5700 5713 5721 5725 5735 5737 5735 5737 5740 5740 5742 5738 5730 5744 5743 5730
5494 5495 5492 5492 5492 5493 5493 5496 5495 5497 5493 5497 5500 5514 5526 5535 5546 5545 5553 5574 5581 5594 5612 5625 5639 5651 5663 5675 5684 5683 5701 5712 5718 5723 5725 5716 5707 5707 5708 5710 5720 5721 5714 5720
5493 5491 5490 5489 5490 5494 5496 5493 5493 5495 5501 5502 5503 5504 5503 5512 5517 5523 5544 5560 5568 5582 5599 5613 5624 5634 5641 5650 5657 5680 5686 5683 5686 5698 5701 5702 5699 5691 5689 5687 5682 5689 5696 5700
5487 5486 5487 5489 5489 5492 5497 5497 5493 5494 5492 5493 5498 5499 5498 5499 5506 5520 5527 5537 5549 5566 5585 5595 5605 5616 5624 5635 5646 5665 5671 5669 5670 5672 5675 5684 5680 5675 5666 5671 5668 5666 5672 5672
5483 5482 5481 5484 5485 5485 5486 5488 5489 5488 5488 5489 5492 5495 5500 5497 5500 5502 5510 5520 5531 5546 5566 5576 5583 5597 5606 5614 5620 5629 5633 5636 5643 5646 5643 5642 5652 5653 5641 5648 5650 5646 5636 5643
5481 5477 5477 5479 5481 5482 5482 5482 5486 5487 5485 5486 5488 5489 5492 5489 5495 5492 5495 5507 5520 5532 5542 5551 5560 5571 5578 5580 5587 5596 5598 5602 5602 5605 5608 5613 5617 5612 5611 5615 5612 5612 5618 5613
5476 5475 5475 5473 5476 5479 5479 5479 5486 5486 5488 5485 5481 5480 5490 5485 5484 5479 5481 5488 5495 5505 5514 5523 5531 5542 5547 5552 5559 5563 5564 5569 5575 5578 5578 5581 5580 5577 5577 5581 5583 5586 5587 5586
5468 5470 5469 5463 5465 5468 5470 5471 5474 5475 5479 5480 5481 5478 5480 5480 5472 5474 5469 5473 5479 5485 5492 5498 5504 5513 5520 5524 5528 5532 5537 5540 5543 5543 5545 5547 5549 5549 5552 5555 5555 5558 5563 5562
5461 5445 5456 5455 5462 5460 5455 5456 5462 5464 5463 5463 5469 5467 5466 5469 5464 5466 5468 5470 5473 5474 5476 5479 5484 5487 5491 5494 5498 5504 5508 5511 5513 5516 5519 5522 5523 5524 5524 5527 5528 5531 5534 5534